Weather reports worldwide

Advertisment
Shawbury, United Kingdom (3414): temperature & dewpoint: 09.10.2019 18:00:00 - 15.10.2019 18:00:00 (BST)Shawbury, United Kingdom (3414): temperature -20cm & temperature -100cm: 09.10.2019 18:00:00 - 15.10.2019 18:00:00 (BST)Shawbury, United Kingdom (3414): wind speed & gusts: 09.10.2019 18:00:00 - 15.10.2019 18:00:00 (BST)Shawbury, United Kingdom (3414): wind direction: 09.10.2019 18:00:00 - 15.10.2019 18:00:00 (BST)Shawbury, United Kingdom (3414): reduced air pressure: 09.10.2019 18:00:00 - 15.10.2019 18:00:00 (BST)Shawbury, United Kingdom (3414): visibility: 09.10.2019 18:00:00 - 15.10.2019 18:00:00 (BST)Shawbury, United Kingdom (3414): sunshine duration: 09.10.2019 18:00:00 - 15.10.2019 18:00:00 (BST)Shawbury, United Kingdom (3414): precipitation: 09.10.2019 18:00:00 - 15.10.2019 18:00:00 (BST)
Date & Time tt [°C] td [°C] tt -20cm [°C] tt -100cm [°C] ff [km/h] ff [kn] fx [km/h] fx [kn] dd ppp [hPa] vv [km] sd [min] rr [mm]
15.10.2019 18:00:00 12,4 10,4 - - 13 7 - - SSE 1002,2 10 0 0,0
15.10.2019 17:00:00 12,5 9,9 - - 13 7 - - SSE 1002,3 10 18 0,0
15.10.2019 16:00:00 12,2 9,2 - - 13 7 - - S 1002,6 10 0 0,0
15.10.2019 15:00:00 11,9 8,7 - - 11 6 - - S 1002,8 10 0 0,0
15.10.2019 14:00:00 11,7 9,0 - - 11 6 - - SSW 1003,1 10 0 0,0
15.10.2019 13:00:00 11,6 7,6 - - 13 7 - - S 1003,3 35 0 0,0
15.10.2019 12:00:00 11,8 8,5 - - 11 6 - - SSE 1003,3 10 0 0,0
15.10.2019 11:00:00 10,7 9,6 - - 8 4 - - WSW 1003,3 10 0 0,0
15.10.2019 10:00:00 10,1 9,7 12,9 13,4 4 2 - - SSW 1003,2 3,0 0 0,0
15.10.2019 09:00:00 9,7 9,3 - - 4 2 - - SSE 1003,2 2,0 0 0,0
15.10.2019 08:00:00 9,6 9,2 - - 4 2 - - SSE 1002,7 3,4 0 0,0
15.10.2019 07:00:00 9,5 9,1 - - 4 2 - - S 1002,3 3,0 0 0,0
15.10.2019 06:00:00 9,4 9,0 - - 8 4 - - W 1002,0 3,0 0 0,0
15.10.2019 05:00:00 9,5 8,9 - - 8 4 - - NW 1002,0 7 0 0,0
15.10.2019 04:00:00 9,5 9,0 - - 8 4 - - WNW 1002,2 6 0 0,0
15.10.2019 03:00:00 9,4 8,9 - - 11 6 - - NW 1001,8 5 0 0,2
15.10.2019 02:00:00 9,6 9,0 - - 13 7 - - NW 1002,1 4,7 0 0,0
15.10.2019 01:00:00 9,6 9,0 - - 16 9 - - NW 1001,7 6 - 0,0
15.10.2019 00:00:00 9,7 9,2 - - 15 8 - - NW 1002,0 6 0 1,0
14.10.2019 23:00:00 9,9 9,2 - - 15 8 - - NNW 1002,3 6 0 0,6
14.10.2019 22:00:00 9,9 9,0 - - 13 7 - - NNW 1002,5 10 0 0,2
14.10.2019 21:00:00 10,1 9,1 - - 11 6 - - NNW 1003,0 10 0 0,2
14.10.2019 20:00:00 10,2 9,2 - - 5 3 - - NNE 1003,6 10 0 0,0
14.10.2019 19:00:00 10,2 9,2 - - 11 6 - - NE 1003,4 10 0 0,2
14.10.2019 18:00:00 10,7 9,4 - - 11 6 - - ENE 1004,2 10 0 0,2
14.10.2019 17:00:00 11,0 9,8 - - 13 7 - - E 1004,5 25 0 0,8
14.10.2019 16:00:00 11,7 9,9 - - 21 11 - - E 1005,4 8 0 2,4
14.10.2019 15:00:00 12,7 9,9 - - 11 6 - - ESE 1005,6 10 0 0,0
14.10.2019 14:00:00 13,5 10,3 - - 16 9 - - E 1005,8 10 0 0,0
14.10.2019 13:00:00 13,7 10,5 - - 15 8 - - SE 1006,6 10 0 0,0
14.10.2019 12:00:00 12,2 10,4 - - 13 7 - - ESE 1007,4 10 0 0,0
14.10.2019 11:00:00 11,2 10,6 - - 11 6 - - ESE 1008,0 10 0 0,0
14.10.2019 10:00:00 9,2 8,9 12,9 13,5 5 3 - - ENE 1008,4 9 0 0,0
14.10.2019 09:00:00 8,3 8,0 - - 8 4 - - E 1008,5 6 0 0,0
14.10.2019 08:00:00 7,8 7,6 - - 8 4 - - E 1008,6 6 0 0,0
14.10.2019 07:00:00 7,6 7,3 - - 5 3 - - E 1008,6 7 0 0,0
14.10.2019 06:00:00 7,3 6,9 - - 9 5 - - E 1009,0 10 0 0,0
14.10.2019 05:00:00 7,2 6,8 - - 4 2 - - E 1009,3 22 0 0,0
14.10.2019 04:00:00 6,3 5,9 - - 2 1 - - ENE 1009,1 10 0 0,0
14.10.2019 03:00:00 7,3 6,8 - - 4 2 - - E 1009,3 29 0 0,0
14.10.2019 02:00:00 7,2 6,6 - - 5 3 - - SE 1009,1 30 0 0,0
14.10.2019 01:00:00 6,6 5,8 - - 2 1 - - W 1008,7 30 - 0,0
14.10.2019 00:00:00 7,0 5,5 - - 8 4 - - SW 1008,7 30 0 0,0
13.10.2019 23:00:00 7,6 6,2 - - 4 2 - - W 1008,4 10 0 0,0
13.10.2019 22:00:00 8,2 6,2 - - 15 8 - - SSW 1008,0 35 0 0,0
13.10.2019 21:00:00 9,4 7,3 - - 13 7 - - SSW 1007,1 35 0 0,0
13.10.2019 20:00:00 10,1 7,6 - - 15 8 - - SSW 1006,1 35 0 0,0
13.10.2019 19:00:00 10,6 7,6 - - 16 9 - - WSW 1004,9 10 0 0,0
13.10.2019 18:00:00 11,9 8,5 - - 22 12 46 25 WSW 1003,5 40 6 0,0
13.10.2019 17:00:00 12,9 8,1 - - 34 18 57 31 WSW 1001,6 10 60 0,0
13.10.2019 16:00:00 14,0 9,0 - - 39 21 61 33 WSW 999,9 30 42 0,0
13.10.2019 15:00:00 12,3 11,1 - - 13 7 - - SSE 999,3 29 0 0,2
13.10.2019 14:00:00 12,0 10,5 - - 9 5 - - SE 999,0 9 0 0,0
13.10.2019 13:00:00 11,6 10,5 - - 5 3 - - SE 999,0 24 0 0,0
13.10.2019 12:00:00 11,4 10,5 - - 5 3 - - ESE 999,0 10 0 0,2
13.10.2019 11:00:00 11,1 10,6 - - 8 4 - - ESE 999,4 26 0 0,0
13.10.2019 10:00:00 10,7 10,4 13,2 13,5 13 7 - - E 999,4 12 0 0,2
13.10.2019 09:00:00 10,4 10,0 - - 9 5 - - ESE 1000,5 6 0 1,0
13.10.2019 08:00:00 10,3 9,8 - - 9 5 - - ESE 1001,0 7 0 1,0
13.10.2019 07:00:00 10,3 9,6 - - 9 5 - - ESE 1001,9 11 0 0,2
13.10.2019 06:00:00 10,7 10,0 - - 8 4 - - SE 1002,6 18 0 0,0
13.10.2019 05:00:00 10,8 10,4 - - 9 5 - - ESE 1002,8 11 0 0,0
13.10.2019 04:00:00 10,8 10,4 - - 11 6 - - SE 1003,5 8 0 0,2
13.10.2019 03:00:00 11,0 10,5 - - 9 5 - - SE 1004,3 3,7 0 0,2
13.10.2019 02:00:00 11,3 10,7 - - 5 3 - - ESE 1004,9 12 0 0,0
13.10.2019 01:00:00 11,3 10,7 - - 5 3 - - SE 1005,2 10 - 0,2
13.10.2019 00:00:00 11,4 10,8 - - 8 4 - - SE 1005,8 14 0 0,0
12.10.2019 23:00:00 11,2 10,2 - - 2 1 - - SSW 1006,1 19 0 0,0
12.10.2019 22:00:00 11,6 10,4 - - 8 4 - - S 1006,4 17 0 0,4
12.10.2019 21:00:00 11,8 10,1 - - 13 7 - - S 1006,2 22 0 0,0
12.10.2019 20:00:00 12,1 10,0 - - 11 6 - - SSW 1006,1 10 0 0,0
12.10.2019 19:00:00 12,7 10,5 - - 11 6 - - S 1006,2 19 0 0,2
12.10.2019 18:00:00 13,4 10,1 - - 13 7 - - SSE 1005,8 10 0 0,0
12.10.2019 17:00:00 14,3 8,8 - - 4 2 - - WSW 1005,8 30 0 0,0
12.10.2019 16:00:00 14,6 8,5 - - 15 8 - - S 1005,9 35 6 0,0
12.10.2019 15:00:00 14,3 8,5 - - 18 10 - - S 1006,2 10 0 0,0
12.10.2019 14:00:00 14,1 8,8 - - 16 9 - - SSW 1006,3 10 12 0,0
12.10.2019 13:00:00 13,5 9,7 - - 13 7 - - S 1006,7 10 12 0,0
12.10.2019 12:00:00 12,9 9,5 - - 18 10 - - S 1006,9 24 6 0,0
12.10.2019 11:00:00 12,0 9,1 - - 15 8 - - S 1006,5 26 18 0,0
12.10.2019 10:00:00 11,1 9,0 13,2 13,7 15 8 - - S 1006,3 27 6 0,0
12.10.2019 09:00:00 9,9 8,7 - - 5 3 - - WSW 1005,8 10 0 0,0
12.10.2019 08:00:00 8,8 7,7 - - 4 2 - - SE 1005,3 24 0 0,0
12.10.2019 07:00:00 8,7 7,5 - - 8 4 - - S 1005,2 26 0 0,0
12.10.2019 06:00:00 10,0 8,1 - - 5 3 - - S 1004,7 30 0 0,0
12.10.2019 05:00:00 10,3 8,5 - - 8 4 - - S 1004,4 29 0 0,0
12.10.2019 04:00:00 10,1 8,3 - - 9 5 - - SW 1004,2 30 0 0,0
12.10.2019 03:00:00 10,2 8,0 - - 18 10 - - SW 1004,5 30 0 0,0
12.10.2019 02:00:00 10,9 8,6 - - 13 7 - - WSW 1004,3 10 0 0,0
12.10.2019 01:00:00 10,7 8,4 - - 16 9 - - WSW 1004,1 29 - 0,0
12.10.2019 00:00:00 11,5 8,6 - - 16 9 - - WSW 1003,9 27 0 0,0
11.10.2019 23:00:00 12,1 9,0 - - 18 10 - - SW 1003,4 24 0 0,0
11.10.2019 22:00:00 12,1 8,9 - - 24 13 - - SW 1002,7 27 0 0,0
11.10.2019 21:00:00 12,1 8,8 - - 21 11 - - SW 1002,6 10 0 0,0
11.10.2019 20:00:00 12,2 8,7 - - 18 10 - - SSW 1002,6 10 0 0,0
11.10.2019 19:00:00 12,2 8,4 - - 15 8 - - SSW 1002,8 30 0 0,0
11.10.2019 18:00:00 13,0 8,5 - - 18 10 - - SW 1002,3 27 0 0,0
11.10.2019 17:00:00 13,5 8,4 - - 22 12 - - WSW 1002,0 10 0 0,0
11.10.2019 16:00:00 14,0 9,5 - - 18 10 - - WSW 1001,6 10 0 0,0
11.10.2019 15:00:00 14,3 10,1 - - 21 11 - - WSW 1001,1 10 18 0,0
11.10.2019 14:00:00 14,4 11,8 - - 21 11 - - WSW 1000,8 10 0 0,0
11.10.2019 13:00:00 14,0 12,3 - - 15 8 - - WSW 1000,6 10 0 0,8
11.10.2019 12:00:00 14,0 12,2 - - 21 11 - - WSW 1000,8 10 0 0,4
11.10.2019 11:00:00 14,3 13,1 - - 24 13 - - WSW 1000,2 7 0 1,6
11.10.2019 10:00:00 14,6 12,4 13,0 13,7 28 15 - - SSW 999,8 10 0 0,0
11.10.2019 09:00:00 13,7 11,9 - - 22 12 - - S 1000,1 10 0 0,4
11.10.2019 08:00:00 14,0 11,4 - - 24 13 - - SSW 1000,9 35 0 0,0
11.10.2019 07:00:00 13,7 12,2 - - 16 9 - - S 1001,3 10 0 0,8
11.10.2019 06:00:00 13,8 12,0 - - 21 11 - - S 1001,8 10 0 0,2
11.10.2019 05:00:00 13,3 11,4 - - 11 6 - - S 1002,5 10 0 0,0
11.10.2019 04:00:00 14,3 10,7 - - 22 12 - - SSW 1003,1 30 0 0,0
11.10.2019 03:00:00 14,2 10,3 - - 24 13 - - SW 1003,5 10 0 0,0
11.10.2019 02:00:00 14,1 9,6 - - 26 14 46 25 SSW 1004,1 35 0 0,0
11.10.2019 01:00:00 14,2 10,2 - - 31 17 50 27 SW 1004,2 28 - 0,0
11.10.2019 00:00:00 13,9 10,0 - - 29 16 - - SW 1004,3 22 0 0,0
10.10.2019 23:00:00 14,2 9,8 - - 24 13 52 28 SW 1004,7 10 0 0,0
10.10.2019 22:00:00 15,0 11,0 - - 34 18 48 26 WSW 1004,3 10 0 0,0
10.10.2019 21:00:00 15,3 12,7 - - 26 14 50 27 SSW 1004,1 10 0 0,0
10.10.2019 20:00:00 13,9 12,5 - - 21 11 - - S 1004,5 35 0 1,4
10.10.2019 19:00:00 15,0 11,4 - - 21 11 - - SSW 1005,3 35 0 0,0
10.10.2019 18:00:00 14,1 11,7 - - 24 13 - - SSW 1005,5 40 0 0,0
10.10.2019 17:00:00 15,0 11,0 - - 34 18 48 26 SW 1006,2 10 6 0,2
10.10.2019 16:00:00 14,6 11,3 - - 31 17 - - S 1006,3 10 0 0,0
10.10.2019 15:00:00 13,8 10,4 - - 28 15 - - SSW 1007,3 10 0 0,0
10.10.2019 14:00:00 13,5 9,5 - - 24 13 - - SSW 1008,1 10 0 0,0
10.10.2019 13:00:00 13,0 9,2 - - 31 17 - - SW 1009,0 25 0 0,0
10.10.2019 12:00:00 12,8 9,7 - - 13 7 - - SSW 1009,1 30 12 0,0
10.10.2019 11:00:00 13,6 7,9 - - 24 13 - - WSW 1009,2 10 54 0,0
10.10.2019 10:00:00 12,1 8,8 12,9 13,7 16 9 - - SW 1008,8 10 12 0,0
10.10.2019 09:00:00 11,0 7,9 - - 22 12 - - WSW 1008,2 30 36 0,0
10.10.2019 08:00:00 9,6 6,8 - - 8 4 - - WSW 1007,9 30 0 0,0
10.10.2019 07:00:00 9,4 6,7 - - 13 7 - - W 1007,2 10 0 0,0
10.10.2019 06:00:00 9,1 7,3 - - 15 8 - - W 1006,9 30 0 0,0
10.10.2019 05:00:00 9,3 7,2 - - 18 10 - - SW 1006,4 10 0 0,0
10.10.2019 04:00:00 9,8 7,6 - - 26 14 - - SW 1005,9 10 0 0,0
10.10.2019 03:00:00 9,3 7,4 - - 16 9 - - WSW 1005,9 24 0 0,0
10.10.2019 02:00:00 9,4 7,2 - - 21 11 - - WSW 1005,4 26 0 0,0
10.10.2019 01:00:00 7,8 6,5 - - 5 3 - - W 1005,2 10 - 0,0
10.10.2019 00:00:00 8,8 7,4 - - 13 7 - - SSW 1005,0 10 0 0,0
09.10.2019 23:00:00 7,4 6,3 - - 9 5 - - WSW 1004,5 10 0 0,0
09.10.2019 22:00:00 7,5 6,4 - - 11 6 - - SW 1004,0 27 0 0,0
09.10.2019 21:00:00 7,5 6,0 - - 9 5 - - SW 1003,6 29 0 0,0
09.10.2019 20:00:00 8,7 6,6 - - 11 6 - - SW 1003,3 10 0 0,0
09.10.2019 19:00:00 9,5 6,9 - - 21 11 46 25 SW 1002,9 35 0 0,0
09.10.2019 18:00:00 12,0 6,5 - - 22 12 - - SW 1002,3 10 6 0,0

tt = temperature
td = dewpoint
tt -20cm = temperature -20cm
tt -100cm = temperature -100cm
ff = wind speed
fx = gusts
dd = wind direction
ppp = reduced air pressure
vv = visibility
sd = sunshine duration
rr = precipitation

Next stations